Simultaneous Nadir Overpasses (SNOs) Predictions

Prediction of SNOs between GOES-16 and TERRA Satellite Orbit:

Table of predicted SNOs for the next 14.0 days since TLE Epoch: 11/7/2025
Index Date Time (GOES-16) GOES-16 Lat,Lon TERRA Lat,Lon Distance(km) Time Diff (sec)
1 11/09/2025 03:52:02 -0.05,-104.64 0.71,-100.95 419.16 80
2 11/09/2025 16:11:25 0.05,-104.71 0.27,-105.67 109.96 80
3 11/11/2025 15:54:35 0.06,-104.71 -0.72,-100.98 423.65 80
4 11/12/2025 04:14:05 -0.06,-104.65 -0.26,-105.73 122.98 80
5 11/14/2025 03:51:55 -0.07,-104.65 0.69,-101.03 411.22 80
6 11/14/2025 16:11:17 0.06,-104.71 0.26,-105.75 117.80 80
7 11/16/2025 15:54:26 0.07,-104.72 -0.73,-101.05 417.16 80
8 11/17/2025 04:13:56 -0.06,-104.66 -0.32,-105.79 128.93 80
9 11/19/2025 03:51:45 -0.07,-104.67 0.70,-101.10 405.85 80
10 11/19/2025 16:11:07 0.06,-104.73 0.29,-105.81 123.46 80
11 11/21/2025 15:54:15 0.07,-104.73 -0.70,-101.11 411.58 80
